一网星座-0188星 (ONEWEB-0188 )

导读 | 星芒AI

ONEWEB-0188 是 OneWeb 卫星通信公司发射的低轨通信卫星之一,旨在为全球提供高速互联网服务。该卫星属于 OneWeb 的星座计划,部署在约 1200 公里的近地轨道上,采用先进通信技术,支持偏远地区和航空、航海等移动场景的网络连接。ONEWEB-0188 的发射有助于扩大 OneWeb 的全球覆盖范围,提升其在国际卫星通信市场的竞争力。

基本信息
目录编号:
48231
目录名称:
ONEWEB-0188
国际标识:
2021-031X
轨道中心:
EARTH
卫星名称:
一网星座-0188星
卫星全名:
一网星座-0188星 (ONEWEB-0188 )
卫星状态:
在轨 (已飞行1695 天)
发射日期:
2021-04-25 UTC
国别 :
英国 (GB)
星等 :
--
轨道信息
数据来源 国际轨道数据
星历时间: 2025-12-15T06:16:15+0800
20小时前
查看轨道信息
半长轴: 7583.922km
偏心率: 0.0001736
轨道倾角: 87.898°
近地点辐角 87.549°
升交点赤经 326.451°
平近点角 272.583°
近地点: 1204.47km
远地点: 1207.104km
周期: 109.547分钟
每日圈数: 13.145044
详细信息
平衡模式:
三轴稳定
覆盖范围:
全球
运营商:
一网卫星公司
运营商所在国:
英国
制造商(研发单位):
一网卫星公司
制造商所在国:
英国
使用方式:
暂无
卫星简介
OneWeb卫星网络由648颗重约125公斤的微型卫星组成,运行在1200公里的轨道上。 每颗卫星都能够提供至少每秒8千兆位的吞吐量,以使用其高吞吐量的Ku频段有效载荷为家庭和移动平台提供互联网接入。该卫星仍在工作。
2D轨道图
3D轨道图
轨道高度分析图
轨道倾角分析图
轨道综合分析图
查看轨道综合分析图